Find Starlink 11544

NORAD ID: 62984 Int'l Des: 2025-031 Owner: SPXS Country: US Constellation: starlink operational
LEOCIRCULAR

实时位置

正在加载3D地球...

关于 Starlink 11544

正在加载描述...

即将过境

Passes for default location (London). Set your location on the main map for personalized predictions.

高度历史

Loading altitude history...

两行轨道根数

1 62984U 25031D 26126.25002315 -.00063627 00000-0 -49582-3 0 9992
2 62984 43.0009 14.3123 0001775 257.7502 235.1732 15.70855348 6048
Epoch: May 6, 2026 • Age: 6 hours

当前状态

高度 360.8 km
速度 7.70 km/s
星下点 43.06°N, 55.03°E
发射日期 Feb 11, 2025
运行时间 1.2 years
类型 internet

技术详情

分类 Payload
质量 960.00 kg
干质量 910.00 kg
总质量 960.00 kg
长度 0.30 m
直径 4.10 m
跨度 29.00 m
形状 Box + pan
制造商 SPXS
平台类型 Starlink V2MD
阶段状态 In Orbit
所有者/国家 SPXS/US

Most Searched